FW8366 Weather Reports


time (UTC)temp
C
wind
direction
speed
KPH
gust
KPH
rain 1hr
cm
rain 24hr
cm
rain mn
cm
humidity
%
barometer
mb
20260506165335 22 7 3.2 6.4 0.00 0.00 0.00 79 1014.1
20260506164831 22 30 3.2 6.4 0.00 0.00 0.00 80 1013.6
20260506164328 22 113 1.6 6.4 0.00 0.00 0.00 80 1013.6
20260506163825 22 35 4.8 9.7 0.00 0.00 0.00 79 1013.6
20260506163320 24 55 6.4 6.4 0.00 0.00 0.00 79 1013.6
20260506162815 25 46 0.0 1.6 0.00 0.00 0.00 83 1013.6
20260506162314 25 102 0.0 0.0 0.00 0.00 0.00 83 1013.3
20260506161811 25 103 1.6 1.6 0.00 0.00 0.00 82 1013.6
20260506161308 25 86 0.0 1.6 0.00 0.00 0.00 81 1013.6
20260506160806 25 103 0.0 1.6 0.00 0.00 0.00 81 1013.6
20260506160302 26 148 1.6 4.8 0.00 0.00 0.00 79 1013.3
20260506155801 26 90 1.6 3.2 0.00 0.00 0.00 81 1013.3
20260506155257 25 99 0.0 1.6 0.00 0.00 0.00 82 1013.3
20260506153410 25 145 0.0 1.6 0.00 0.00 0.00 86 1013.3
20260506152907 25 21 3.2 3.2 0.00 0.00 0.00 86 1013.3
20260506152404 25 122 0.0 1.6 0.00 0.00 0.00 87 1013.3
20260506151903 24 107 0.0 1.6 0.00 0.00 0.00 88 1013.0
20260506151359 24 110 0.0 1.6 0.00 0.00 0.00 89 1013.0
20260506150857 24 173 1.6 1.6 0.00 0.00 0.00 89 1013.0
20260506150353 23 137 0.0 1.6 0.00 0.00 0.00 91 1013.0
20260506145849 23 104 0.0 1.6 0.00 0.00 0.00 92 1012.6
20260506145345 23 133 0.0 1.6 0.00 0.00 0.00 93 1013.0
20260506144843 23 124 0.0 0.0 0.00 0.00 0.00 94 1012.6
20260506144340 23 106 0.0 0.0 0.00 0.00 0.00 94 1012.6
20260506143838 22 123 0.0 0.0 0.00 0.00 0.00 95 1012.6
20260506143335 22 107 0.0 0.0 0.00 0.00 0.00 94 1012.6
20260506142833 22 80 0.0 0.0 0.00 0.00 0.00 94 1012.6
20260506142331 22 68 0.0 1.6 0.00 0.00 0.00 94 1013.0
20260506141829 22 82 0.0 3.2 0.00 0.00 0.00 94 1013.0
20260506141327 22 85 1.6 3.2 0.00 0.00 0.00 94 1013.0
20260506140825 22 64 1.6 3.2 0.00 0.00 0.00 94 1012.6
20260506140321 22 83 0.0 1.6 0.00 0.00 0.00 94 1012.6
20260506135818 22 107 0.0 0.0 0.00 0.00 0.00 95 1012.6
20260506135314 22 109 0.0 1.6 0.00 0.00 0.00 95 1012.3
20260506134811 22 120 0.0 0.0 0.00 0.00 0.00 95 1011.9
20260506134307 22 126 0.0 0.0 0.00 0.00 0.00 96 1011.9
20260506133804 22 123 0.0 1.6 0.00 0.00 0.00 96 1011.6
20260506133301 22 120 0.0 1.6 0.00 0.00 0.00 96 1011.6
20260506132758 22 160 0.0 1.6 0.00 0.00 0.00 96 1011.2
20260506132255 22 134 0.0 0.0 0.00 0.00 0.00 96 1011.2
20260506131754 22 136 0.0 1.6 0.00 0.00 0.00 97 1011.2
20260506131249 22 127 0.0 1.6 0.00 0.00 0.00 97 1011.2
20260506130746 22 138 0.0 1.6 0.00 0.00 0.00 97 1011.6
20260506130243 22 133 0.0 0.0 0.00 0.00 0.00 97 1011.2
20260506125741 22 65 0.0 1.6 0.00 0.00 0.00 97 1011.2
20260506125239 22 126 0.0 0.0 0.00 0.00 0.00 97 1010.8
20260506124737 22 165 1.6 3.2 0.00 0.00 0.00 97 1011.2
20260506124234 22 134 0.0 1.6 0.00 0.00 0.00 97 1011.2
20260506123731 22 123 0.0 0.0 0.00 0.00 0.00 97 1010.8
20260506123230 22 137 0.0 0.0 0.00 0.00 0.00 97 1010.8
20260506122726 22 140 0.0 1.6 0.00 0.00 0.00 97 1010.8
20260506122224 22 143 0.0 0.0 0.00 0.00 0.00 97 1010.8
20260506121722 22 122 0.0 0.0 0.00 0.00 0.00 97 1010.5
20260506121218 22 125 0.0 0.0 0.00 0.00 0.00 97 1010.8
20260506120716 22 321 0.0 1.6 0.00 0.00 0.00 97 1010.8
20260506120213 22 139 0.0 1.6 0.00 0.00 0.00 97 1010.5
20260506115711 22 186 0.0 1.6 0.00 0.00 0.00 97 1010.5
20260506115209 22 129 0.0 0.0 0.00 0.00 0.00 96 1010.8
20260506114706 22 128 0.0 0.0 0.00 0.00 0.00 96 1010.5
20260506114204 22 158 0.0 1.6 0.00 0.00 0.00 96 1010.8
20260506113703 22 125 0.0 0.0 0.00 0.00 0.00 96 1010.8
20260506113200 22 167 1.6 1.6 0.00 0.00 0.00 96 1010.8
20260506112655 22 113 0.0 0.0 0.00 0.00 0.00 96 1010.8
20260506112153 22 111 0.0 0.0 0.00 0.00 0.00 96 1010.8
20260506111650 22 123 0.0 0.0 0.00 0.00 0.00 96 1010.8
20260506111148 22 120 0.0 0.0 0.00 0.00 0.00 96 1011.2
20260506110646 22 133 0.0 1.6 0.00 0.00 0.00 96 1011.2
20260506110143 22 136 0.0 0.0 0.00 0.00 0.00 96 1011.2
20260506105639 22 110 0.0 1.6 0.00 0.00 0.00 96 1011.2
20260506105136 22 132 0.0 1.6 0.00 0.00 0.00 96 1011.2
20260506104634 22 184 0.0 1.6 0.00 0.00 0.00 96 1011.2
20260506104132 22 152 0.0 1.6 0.00 0.00 0.00 96 1010.8
20260506103629 22 166 1.6 3.2 0.00 0.00 0.00 96 1010.8
20260506103125 22 153 0.0 3.2 0.00 0.00 0.00 96 1010.8
20260506102624 22 115 0.0 1.6 0.00 0.00 0.00 96 1010.8
20260506102121 22 221 3.2 4.8 0.00 0.00 0.00 96 1010.8
20260506101617 22 199 0.0 3.2 0.00 0.00 0.00 95 1010.8
20260506101114 22 153 1.6 3.2 0.00 0.00 0.00 95 1010.8
20260506100613 22 286 0.0 4.8 0.00 0.00 0.00 95 1010.8
20260506100110 22 180 3.2 4.8 0.00 0.00 0.00 95 1010.8
20260506095609 22 316 1.6 3.2 0.00 0.00 0.00 95 1010.8
20260506095105 22 74 3.2 6.4 0.00 0.00 0.00 95 1010.8
20260506094603 22 154 1.6 1.6 0.00 0.00 0.00 95 1010.5
20260506094100 22 210 4.8 6.4 0.00 0.00 0.00 94 1010.8
20260506093559 22 103 0.0 3.2 0.00 0.00 0.00 94 1010.8
20260506093055 22 224 4.8 6.4 0.00 0.00 0.00 94 1010.5
20260506092554 22 133 0.0 4.8 0.00 0.00 0.00 94 1010.5
20260506092050 22 157 1.6 9.7 0.00 0.00 0.00 94 1010.5
20260506091548 22 59 0.0 3.2 0.00 0.00 0.00 93 1010.5
20260506091045 22 347 1.6 4.8 0.00 0.00 0.00 93 1010.1
20260506090543 22 204 1.6 6.4 0.00 0.00 0.00 93 1010.1
20260506090039 22 167 4.8 6.4 0.00 0.00 0.00 93 1010.1
20260506085536 22 12 1.6 3.2 0.00 0.00 0.00 93 1010.1
20260506085032 22 132 3.2 6.4 0.00 0.00 0.00 92 1010.1
20260506084530 22 50 1.6 9.7 0.00 0.00 0.00 92 1010.1
20260506084025 22 177 1.6 3.2 0.00 0.00 0.00 92 1010.5
20260506083523 22 140 0.0 1.6 0.00 0.00 0.00 92 1010.1
20260506083020 22 105 0.0 3.2 0.00 0.00 0.00 92 1010.5
20260506082517 22 209 1.6 4.8 0.00 0.00 0.00 92 1010.5
20260506082013 22 153 3.2 4.8 0.00 0.00 0.00 92 1010.1
20260506081511 22 193 0.0 4.8 0.00 0.00 0.00 93 1010.1
20260506081008 22 118 1.6 4.8 0.00 0.00 0.00 93 1010.1
20260506080506 22 127 1.6 4.8 0.00 0.00 0.00 93 1010.1
20260506073449 22 143 0.0 3.2 0.00 0.00 0.00 92 1010.5
20260506072946 22 141 1.6 3.2 0.00 0.00 0.00 92 1010.8
20260506072443 22 246 1.6 4.8 0.00 0.00 0.00 92 1010.5
20260506071941 22 139 0.0 3.2 0.00 0.00 0.00 92 1010.8
20260506071439 22 53 1.6 6.4 0.00 0.00 0.00 92 1010.8
20260506070935 22 104 1.6 6.4 0.00 0.00 0.00 92 1010.8
20260506070432 22 109 1.6 3.2 0.00 0.00 0.00 92 1011.2
20260506062410 23 206 1.6 6.4 0.00 0.00 0.00 90 1011.2
20260506061906 23 75 3.2 4.8 0.00 0.00 0.00 90 1010.8
20260506061402 23 181 3.2 3.2 0.00 0.00 0.00 90 1010.8
20260506060901 23 152 1.6 4.8 0.00 0.00 0.00 90 1011.2
20260506060358 23 12 3.2 4.8 0.00 0.00 0.00 90 1011.2
20260506051330 23 215 1.6 3.2 0.00 0.00 0.00 90 1010.8
20260506050828 23 52 1.6 4.8 0.00 0.00 0.00 90 1011.2
20260506050325 23 137 1.6 1.6 0.00 0.00 0.00 90 1011.2
20260506044815 23 151 0.0 1.6 0.00 0.00 0.00 90 1011.2
20260506044313 23 152 1.6 3.2 0.00 0.00 0.00 90 1010.8
20260506043810 23 125 0.0 1.6 0.00 0.00 0.00 89 1010.8
20260506043308 23 92 0.0 3.2 0.00 0.00 0.00 90 1010.8
20260506042806 23 123 1.6 3.2 0.00 0.00 0.00 90 1010.8
20260506042305 23 119 0.0 1.6 0.00 0.00 0.00 90 1010.8
20260506041803 23 145 0.0 1.6 0.00 0.00 0.00 90 1010.8
20260506041259 23 94 0.0 3.2 0.00 0.00 0.00 90 1010.8
20260506040756 23 83 0.0 3.2 0.00 0.00 0.00 90 1010.5
20260506040254 23 110 0.0 3.2 0.00 0.00 0.00 90 1010.5
20260506035750 23 165 1.6 1.6 0.00 0.00 0.00 89 1010.8
20260506035247 23 131 1.6 1.6 0.00 0.00 0.00 89 1010.5
20260506034744 23 122 0.0 1.6 0.00 0.00 0.00 88 1010.5
20260506034242 23 142 0.0 1.6 0.00 0.00 0.00 88 1010.1
20260506033738 23 121 0.0 1.6 0.00 0.00 0.00 88 1010.5
20260506033236 23 133 0.0 1.6 0.00 0.00 0.00 88 1010.5
20260506032732 23 119 0.0 1.6 0.00 0.00 0.00 87 1010.1
20260506032229 23 126 0.0 0.0 0.00 0.00 0.00 87 1010.1
20260506031726 23 124 0.0 1.6 0.00 0.00 0.00 87 1010.1
20260506031223 23 123 0.0 0.0 0.00 0.00 0.00 87 1010.1
20260506030722 23 107 0.0 0.0 0.00 0.00 0.00 86 1009.8
20260506030219 23 134 0.0 0.0 0.00 0.00 0.00 86 1009.8
20260506025715 23 126 0.0 1.6 0.00 0.00 0.00 86 1009.8
20260506025212 23 121 0.0 0.0 0.00 0.00 0.00 85 1009.8
20260506024709 23 110 0.0 1.6 0.00 0.00 0.00 85 1009.5
20260506024205 23 143 0.0 1.6 0.00 0.00 0.00 84 1009.5
20260506023702 23 133 0.0 1.6 0.00 0.00 0.00 84 1009.8
20260506023159 23 128 0.0 1.6 0.00 0.00 0.00 84 1009.8
20260506022656 23 133 0.0 1.6 0.00 0.00 0.00 83 1009.5
20260506022153 23 150 0.0 1.6 0.00 0.00 0.00 83 1009.5
20260506021651 23 142 0.0 1.6 0.00 0.00 0.00 82 1009.5
20260506021148 24 130 0.0 0.0 0.00 0.00 0.00 82 1009.5
20260506020645 24 124 0.0 0.0 0.00 0.00 0.00 81 1009.5
20260506020143 24 119 0.0 0.0 0.00 0.00 0.00 81 1009.0
20260506015640 24 124 0.0 0.0 0.00 0.00 0.00 80 1009.0
20260506015137 24 118 0.0 0.0 0.00 0.00 0.00 80 1009.0
20260506014635 25 127 0.0 1.6 0.00 0.00 0.00 79 1008.7
20260506014130 25 131 0.0 0.0 0.00 0.00 0.00 79 1008.7
20260506013629 25 135 0.0 1.6 0.00 0.00 0.00 78 1008.7
20260506013125 25 151 0.0 0.0 0.00 0.00 0.00 78 1008.4
20260506012621 25 133 0.0 0.0 0.00 0.00 0.00 77 1008.7
20260506012118 25 117 0.0 1.6 0.00 0.00 0.00 76 1008.4
20260506011616 25 162 0.0 1.6 0.00 0.00 0.00 76 1008.4
20260506011112 26 151 0.0 1.6 0.00 0.00 0.00 75 1008.4
20260506010606 26 111 0.0 0.0 0.00 0.00 0.00 74 1008.4
20260506005559 26 126 0.0 0.0 0.00 0.00 0.00 72 1008.4
20260506005055 27 125 0.0 0.0 0.00 0.00 0.00 71 1008.4
20260506004552 27 116 0.0 0.0 0.00 0.00 0.00 71 1008.4
20260506004049 27 98 0.0 1.6 0.00 0.00 0.00 70 1008.4
20260506003545 27 185 0.0 1.6 0.00 0.00 0.00 69 1008.4
20260506003042 27 143 0.0 1.6 0.00 0.00 0.00 69 1008.4
20260506002537 27 122 0.0 1.6 0.00 0.00 0.00 69 1008.4
20260506002034 27 128 0.0 1.6 0.00 0.00 0.00 68 1008.4
20260506001530 27 202 1.6 1.6 0.00 0.00 0.00 67 1008.4
20260506001027 28 200 3.2 4.8 0.00 0.00 0.00 66 1008.4
20260506000525 28 137 0.0 1.6 0.00 0.00 0.00 65 1008.7
20260506000022 28 145 0.0 3.2 0.00 0.00 0.00 65 1008.4
20260505235520 28 125 0.0 4.8 0.00 0.00 0.00 64 1008.4
20260505235016 28 153 0.0 3.2 0.00 0.00 0.00 64 1008.4
20260505234514 28 244 1.6 4.8 0.00 0.00 0.00 63 1008.4
20260505234010 28 142 1.6 6.4 0.00 0.00 0.00 63 1008.4
20260505233508 29 204 1.6 3.2 0.00 0.00 0.00 63 1008.4
20260505233005 29 96 1.6 3.2 0.00 0.00 0.00 63 1008.4
20260505232503 29 158 4.8 6.4 0.00 0.00 0.00 63 1008.4
20260505232000 28 202 1.6 3.2 0.00 0.00 0.00 64 1008.4
20260505231457 28 233 3.2 4.8 0.00 0.00 0.00 64 1008.4
20260505230955 28 188 3.2 4.8 0.00 0.00 0.00 63 1008.4
20260505230453 29 89 1.6 4.8 0.00 0.00 0.00 62 1008.4
20260505225949 29 247 1.6 3.2 0.00 0.00 0.00 62 1008.4
20260505225446 30 178 1.6 11.3 0.00 0.00 0.00 61 1008.4
20260505224942 30 217 1.6 4.8 0.00 0.00 0.00 60 1008.4
20260505224439 30 246 4.8 6.4 0.00 0.00 0.00 59 1008.4
20260505223936 29 227 4.8 12.9 0.00 0.00 0.00 60 1008.4
20260505223433 30 345 1.6 6.4 0.00 0.00 0.00 60 1008.4
20260505222929 29 327 0.0 6.4 0.00 0.00 0.00 62 1008.4
20260505222426 30 149 1.6 11.3 0.00 0.00 0.00 61 1008.4
20260505221922 30 293 1.6 6.4 0.00 0.00 0.00 59 1008.4
20260505221419 30 288 1.6 4.8 0.00 0.00 0.00 60 1008.4
20260505220916 29 238 3.2 4.8 0.00 0.00 0.00 61 1008.4
20260505220413 28 312 3.2 4.8 0.00 0.00 0.00 62 1008.4
20260505215911 28 261 4.8 6.4 0.00 0.00 0.00 62 1008.4
20260505215409 29 239 3.2 12.9 0.00 0.00 0.00 62 1008.4
20260505214907 29 114 1.6 4.8 0.00 0.00 0.00 62 1008.4
20260505214404 29 250 3.2 9.7 0.00 0.00 0.00 61 1008.4
20260505213901 30 149 4.8 6.4 0.00 0.00 0.00 60 1008.4
20260505213359 29 86 4.8 11.3 0.00 0.00 0.00 60 1008.4
20260505212854 30 184 1.6 9.7 0.00 0.00 0.00 61 1008.4
20260505212352 30 201 4.8 4.8 0.00 0.00 0.00 62 1008.4
20260505211848 30 233 6.4 11.3 0.00 0.00 0.00 59 1008.7
20260505211346 30 130 1.6 4.8 0.00 0.00 0.00 60 1008.7
20260505210842 30 191 1.6 9.7 0.00 0.00 0.00 61 1008.7
20260505210339 30 293 3.2 9.7 0.00 0.00 0.00 62 1009.0
20260505205835 30 160 9.7 12.9 0.00 0.00 0.00 60 1009.0
20260505205334 30 23 1.6 6.4 0.00 0.00 0.00 64 1009.0
20260505204830 30 253 4.8 9.7 0.00 0.00 0.00 61 1009.5
20260505204328 29 232 3.2 12.9 0.00 0.00 0.00 61 1009.5
20260505203826 29 124 1.6 4.8 0.00 0.00 0.00 61 1009.0
20260505203322 29 99 1.6 9.7 0.00 0.00 0.00 64 1009.5
20260505202818 29 217 3.2 4.8 0.00 0.00 0.00 61 1009.5
20260505202314 29 106 1.6 6.4 0.00 0.00 0.00 62 1009.8
20260505201811 28 196 3.2 4.8 0.00 0.00 0.00 65 1009.8
20260505201309 28 159 3.2 6.4 0.00 0.00 0.00 64 1009.8
20260505200807 29 326 3.2 4.8 0.00 0.00 0.00 64 1009.8
20260505200304 28 343 3.2 9.7 0.00 0.00 0.00 64 1009.8
20260505195759 28 278 1.6 9.7 0.00 0.00 0.00 63 1009.8
20260505195257 29 60 1.6 9.7 0.00 0.00 0.00 64 1009.8
20260505194753 28 280 0.0 3.2 0.00 0.00 0.00 69 1010.1
20260505194250 28 215 3.2 11.3 0.00 0.00 0.00 67 1010.1
20260505193746 27 224 3.2 4.8 0.00 0.00 0.00 69 1010.1
20260505193244 28 122 1.6 9.7 0.00 0.00 0.00 66 1010.1
20260505192742 28 150 3.2 11.3 0.00 0.00 0.00 66 1010.1
20260505192239 28 240 0.0 9.7 0.00 0.00 0.00 65 1010.5
20260505191737 27 252 1.6 3.2 0.00 0.00 0.00 68 1010.1
20260505191235 27 134 1.6 4.8 0.00 0.00 0.00 67 1010.1
20260505190731 27 151 1.6 1.6 0.00 0.00 0.00 70 1010.1
20260505190231 27 206 1.6 3.2 0.00 0.00 0.00 68 1010.5
20260505185728 27 233 8.0 12.9 0.00 0.00 0.00 68 1010.8
20260505185225 27 254 1.6 11.3 0.00 0.00 0.00 69 1010.8
20260505184720 27 195 4.8 4.8 0.00 0.00 0.00 67 1010.5
20260505184218 27 229 4.8 6.4 0.00 0.00 0.00 69 1010.8
20260505183715 27 217 1.6 6.4 0.00 0.00 0.00 69 1011.2
20260505183212 27 171 1.6 11.3 0.00 0.00 0.00 69 1010.8
20260505182708 27 219 1.6 9.7 0.00 0.00 0.00 71 1010.8
20260505182206 26 203 1.6 3.2 0.00 0.00 0.00 73 1011.2
20260505181702 26 272 1.6 4.8 0.00 0.00 0.00 74 1011.2
20260505181200 26 279 3.2 11.3 0.00 0.00 0.00 73 1011.2
20260505180655 26 117 6.4 9.7 0.00 0.00 0.00 72 1011.2
20260505180153 26 241 4.8 9.7 0.00 0.00 0.00 74 1011.2
20260505175649 25 256 1.6 4.8 0.00 0.00 0.00 74 1011.2
20260505175145 25 101 3.2 4.8 0.00 0.00 0.00 75 1011.6
20260505174642 25 221 3.2 9.7 0.00 0.00 0.00 75 1011.6
20260505174138 24 152 1.6 3.2 0.00 0.00 0.00 78 1011.2
20260505173635 24 182 3.2 11.3 0.00 0.00 0.00 78 1011.6
20260505173132 24 206 6.4 12.9 0.00 0.00 0.00 78 1011.6
20260505172629 25 323 6.4 9.7 0.00 0.00 0.00 77 1011.6
20260505172126 25 130 1.6 3.2 0.00 0.00 0.00 78 1011.2
20260505171620 24 117 1.6 3.2 0.00 0.00 0.00 78 1011.2
20260505171118 24 184 3.2 9.7 0.00 0.00 0.00 79 1011.6
20260505170615 24 217 1.6 4.8 0.00 0.00 0.00 78 1011.2
20260505170111 23 270 1.6 6.4 0.00 0.00 0.00 81 1011.6
20260505165606 23 262 3.2 9.7 0.00 0.00 0.00 81 1011.2